[[{"header":{"parameterUnit":"m.s-1","parameterCategory":1,"la1":30.2991,"la2":30.254,"lo1":-89.0895,"lo2":-89.0444,"dy":0.0017,"dx":0.0017,"nx":28,"ny":28,"refTime":"2025-12-10T03:00:00:Z","depth":0,"parameterNumber":2,"parameterNumberName":"U-component_of_WINDS"},"data":[0,0,0,0,0,0,0,0,0,0,0,0,0,0,0,0,0,0,0,0,0,0,0,0,0,0,0,0,0,0,0,0,0,0,0,0,0,0,0,0,0,0,0,0,0,0,0,0,0,0,0,0,0,0,0,0,0,0,0.4603,0.4603,0,0.4595,0.4595,0.4595,0.4618,0.4619,0.462,0.462,0.4609,0.4608,0.4607,0,0,0,0,0,0,0,0,0,0,0,0,0,0.4637,0.4636,0.4603,0.4603,0.4603,0.4595,0.4595,0.4595,0.4618,0.4619,0.462,0.4621,0.461,0.4608,0.4607,0,0,0,0,0,0,0,0,0,0,0,0,0,0.4625,0.4636,0.4603,0.4614,0.4615,0.4595,0.4595,0.4595,0.4618,0.4619,0.462,0.4621,0.461,0.4609,0.4607,0.4576,0,0,0.4603,0.4602,0,0,0,0,0,0,0,0,0.4625,0.4623,0.4612,0.4613,0.4614,0.4609,0.4603,0.4589,0.4618,0.4617,0.462,0.4622,0.4608,0.4607,0.4603,0.4576,0.4575,0.4603,0.4602,0.4601,0.4601,0,0,0,0,0,0,0,0.4626,0.4624,0.46,0.4612,0.4613,0.4618,0.4618,0.46,0.4606,0.4617,0.4618,0.4617,0.4609,0.4604,0.4603,0.4575,0.4603,0.4601,0.46,0.46,0.4523,0.4522,0,0,0,0,0,0,0.4626,0.4624,0.46,0.46,0.4622,0.4617,0.4616,0.4609,0.4606,0.4607,0.4616,0.4618,0.4606,0.4604,0.4602,0.4566,0.4601,0.46,0.4599,0.4524,0.4522,0.4521,0,0,0,0,0,0,0.4626,0.4623,0.46,0.4612,0.461,0.4615,0.4607,0.4609,0.4604,0.4606,0.4607,0.4611,0.4607,0.4605,0.4583,0.4566,0.4599,0.4598,0.4525,0.4523,0.4522,0.4493,0,0,0,0,0,0,0.4627,0.4624,0.4612,0.4612,0.4609,0.4581,0.4606,0.4608,0.4602,0.4604,0.4601,0.4602,0.4608,0.4585,0.4581,0.4564,0.4597,0.4527,0.4524,0.4522,0.4495,0.449,0.4486,0,0,0,0,0,0.4628,0.4604,0.4611,0.4608,0.4595,0.458,0.4579,0.4587,0.46,0.4589,0.459,0.4602,0.4569,0.4583,0.4579,0.4561,0.4528,0.4525,0.4522,0.4497,0.4491,0.4486,0,0,0,0,0,0,0.46,0.4604,0.4612,0.4587,0.4583,0.4584,0.457,0.458,0.4572,0.4574,0.4584,0.4583,0.4559,0.4558,0.4574,0.4531,0.455,0.4547,0.4533,0.4527,0.4522,0.4522,0.4595,0,0,0,0,0,0.4591,0.458,0.4583,0.456,0.4558,0.4564,0.4558,0.4565,0.4561,0.4559,0.4559,0.4554,0.4543,0.4535,0.4525,0.4496,0.4495,0.4482,0.4477,0.4473,0.447,0.4454,0.4448,0.4512,0.4512,0.4513,0,0,0.4572,0.4573,0.4564,0.4555,0.4553,0.454,0.4563,0.4548,0.4538,0.4557,0.4536,0.4536,0.4532,0.4506,0.4495,0.4505,0.4452,0.447,0.4467,0.4465,0.4451,0.4445,0.4439,0.4511,0.4511,0.4511,0,0,0.453,0.453,0.4511,0.4509,0.4506,0.4511,0.4506,0.4506,0.4507,0.4487,0.4501,0.4489,0.447,0.4466,0.4461,0.442,0.443,0.4416,0.4391,0.4376,0.4371,0.4366,0.4351,0.4345,0.4413,0.4413,0.4413,0,0.4506,0.4488,0.45,0.4484,0.4479,0.4497,0.4478,0.4475,0.4468,0.4464,0.4476,0.4452,0.445,0.4424,0.4414,0.441,0.4404,0.4415,0.4371,0.4366,0.4362,0.4348,0.4342,0.4411,0.4411,0.4411,0.4411,0,0.4459,0.4446,0.4431,0.4426,0.4419,0.4402,0.441,0.4402,0.441,0.4413,0.4393,0.4391,0.4381,0.4376,0.4383,0.4351,0.4357,0.4369,0.4388,0.4354,0.4341,0.4335,0.4408,0.4409,0.441,0.441,0,0,0.4397,0.44,0.4394,0.4391,0.439,0.438,0.4364,0.4355,0.4348,0.4343,0.4329,0.4313,0.4325,0.432,0.4327,0.4314,0.428,0.4328,0.4328,0.4318,0.4244,0.4234,0.4227,0.4288,0.4287,0.4286,0.4244,0,0.4355,0.4328,0.4338,0.4309,0.4298,0.4315,0.4301,0.4299,0.4302,0.4292,0.4295,0.4283,0.43,0.4297,0.4285,0.4287,0.4265,0.429,0.4273,0.4273,0.4273,0.422,0.4209,0.4169,0.4239,0.4238,0.4238,0,0.4302,0.4297,0.4267,0.4269,0.4264,0.4251,0.4244,0.4235,0.4233,0.4236,0.4231,0.4241,0.4225,0.4245,0.4222,0.4239,0.4233,0.4233,0.4232,0.4229,0.4252,0.4215,0.4157,0.4151,0.4229,0.423,0.4231,0,0.4259,0.4244,0.4225,0.4223,0.4224,0.4215,0.4215,0.4214,0.4208,0.4202,0.4198,0.419,0.4185,0.4178,0.4186,0.42,0.4162,0.4183,0.4163,0.4163,0.4152,0.4153,0.4092,0.4151,0.4151,0.4151,0.4151,0,0.421,0.4191,0.4206,0.4193,0.4173,0.4185,0.4164,0.4166,0.4165,0.4153,0.4168,0.4157,0.4168,0.4158,0.4164,0.4143,0.4141,0.4143,0.4144,0.4141,0.414,0.4136,0.4138,0.415,0.415,0.415,0.415,0,0.4157,0.4166,0.4146,0.415,0.4151,0.4135,0.4138,0.4127,0.4132,0.4117,0.4114,0.4121,0.411,0.4117,0.4105,0.4109,0.4083,0.4089,0.4084,0.4085,0.4064,0.4065,0.3996,0.3988,0.4054,0.4053,0.4053,0,0.4125,0.4111,0.4114,0.4108,0.4107,0.4097,0.4092,0.4104,0.4097,0.4095,0.4083,0.4073,0.4066,0.4047,0.405,0.4041,0.4046,0.4023,0.4045,0.4042,0.4045,0.4045,0.4043,0.4018,0.4017,0.4016,0.4016,0,0.4066,0.4072,0.4064,0.4058,0.4051,0.4047,0.4044,0.4037,0.405,0.4042,0.4031,0.4025,0.4014,0.4004,0.3996,0.3996,0.4007,0.401,0.4004,0.3999,0.3997,0.3997,0.407,0.401,0.4011,0.4011,0.4012,0.4012,0.4022,0.401,0.4011,0.4002,0.4001,0.3998,0.3988,0.3992,0.3983,0.3976,0.3983,0.397,0.3969,0.3961,0.3959,0.3948,0.3958,0.395,0.3948,0.3946,0.3942,0.4,0.3947,0.3947,0.3948,0.3948,0.3948,0,0.3963,0.3965,0.3956,0.3952,0.3945,0.3958,0.3956,0.3949,0.3937,0.3935,0.3928,0.3916,0.3906,0.391,0.3902,0.3892,0.3897,0.389,0.389,0.3889,0.3935,0.394,0.3886,0.3886,0.3886,0.3886,0.3886,0.3886,0.3931,0.3912,0.3918,0.3899,0.3901,0.3889,0.3886,0.3883,0.3882,0.3868,0.386,0.3864,0.3864,0.3856,0.3848,0.3849,0.3845,0.3835,0.3838,0.388,0.3886,0.3892,0.3896,0.3834,0.3834,0.3793,0.3793,0.3792]},{"header":{"parameterUnit":"m.s-1","parameterCategory":1,"la1":30.2991,"la2":30.254,"lo1":-89.0895,"lo2":-89.0444,"dy":0.0017,"dx":0.0017,"nx":28,"ny":28,"refTime":"2025-12-10T03:00:00:Z","depth":0,"parameterNumber":3,"parameterNumberName":"V-component_of_WINDS"},"data":[0,0,0,0,0,0,0,0,0,0,0,0,0,0,0,0,0,0,0,0,0,0,0,0,0,0,0,0,0,0,0,0,0,0,0,0,0,0,0,0,0,0,0,0,0,0,0,0,0,0,0,0,0,0,0,0,0,0,-5.8987,-5.8988,0,-5.9098,-5.9099,-5.91,-5.904,-5.9037,-5.9034,-5.9032,-5.9141,-5.9146,-5.9152,0,0,0,0,0,0,0,0,0,0,0,0,0,-5.8718,-5.8723,-5.8986,-5.8988,-5.8989,-5.9098,-5.9099,-5.9101,-5.9041,-5.9037,-5.9034,-5.903,-5.9139,-5.9145,-5.9152,0,0,0,0,0,0,0,0,0,0,0,0,0,-5.8832,-5.8725,-5.8986,-5.8973,-5.8973,-5.9097,-5.9099,-5.9101,-5.9042,-5.9037,-5.9033,-5.9028,-5.9136,-5.9145,-5.9153,-5.9296,0,0,-5.9179,-5.9183,0,0,0,0,0,0,0,0,-5.8826,-5.8842,-5.8973,-5.8974,-5.8974,-5.9051,-5.9044,-5.9166,-5.9043,-5.9015,-5.9032,-5.9026,-5.9114,-5.9124,-5.9155,-5.9301,-5.9306,-5.918,-5.9185,-5.9189,-5.9191,0,0,0,0,0,0,0,-5.8818,-5.8837,-5.903,-5.8975,-5.8976,-5.8959,-5.8971,-5.9067,-5.9088,-5.9017,-5.9013,-5.9028,-5.9113,-5.9147,-5.9157,-5.9307,-5.918,-5.9187,-5.9193,-5.9196,-5.9577,-5.9581,0,0,0,0,0,0,-5.8811,-5.8831,-5.9027,-5.9034,-5.8887,-5.8968,-5.8981,-5.9031,-5.9087,-5.9092,-5.9031,-5.9024,-5.9134,-5.9147,-5.916,-5.9332,-5.9189,-5.9197,-5.9202,-5.9572,-5.9578,-5.9583,0,0,0,0,0,0,-5.8806,-5.883,-5.9022,-5.8931,-5.8955,-5.8977,-5.9034,-5.9035,-5.9068,-5.9098,-5.9101,-5.9062,-5.9131,-5.9148,-5.9263,-5.9335,-5.9201,-5.9209,-5.9566,-5.9573,-5.958,-5.9676,0,0,0,0,0,0,-5.8798,-5.8828,-5.8884,-5.8933,-5.896,-5.9125,-5.9038,-5.9041,-5.9084,-5.9076,-5.9127,-5.9131,-5.9129,-5.9251,-5.9272,-5.9344,-5.9215,-5.9559,-5.9569,-5.9578,-5.9666,-5.9686,-5.9702,0,0,0,0,0,-5.8789,-5.8905,-5.8887,-5.8911,-5.903,-5.9129,-5.9144,-5.9141,-5.909,-5.9146,-5.9164,-5.913,-5.9323,-5.9263,-5.9286,-5.9362,-5.9555,-5.9566,-5.9577,-5.9658,-5.9682,-5.9702,0,0,0,0,0,0,-5.8861,-5.8911,-5.8892,-5.9027,-5.9075,-5.9119,-5.9189,-5.9166,-5.9227,-5.9217,-5.9208,-5.922,-5.934,-5.9362,-5.9294,-5.9503,-5.9431,-5.9447,-5.9485,-5.9507,-5.9525,-5.9517,-5.9222,0,0,0,0,0,-5.8894,-5.8972,-5.901,-5.9126,-5.9151,-5.9166,-5.9209,-5.9202,-5.9251,-5.927,-5.9297,-5.9344,-5.9415,-5.9462,-5.9529,-5.9669,-5.9679,-5.9732,-5.975,-5.9765,-5.9779,-5.9854,-5.9879,-5.962,-5.962,-5.962,0,0,-5.896,-5.8997,-5.9046,-5.9141,-5.9177,-5.9257,-5.9183,-5.9271,-5.9329,-5.9282,-5.9393,-5.9415,-5.9466,-5.9594,-5.9652,-5.9616,-5.9853,-5.9779,-5.979,-5.9797,-5.9869,-5.9893,-5.9915,-5.9627,-5.9626,-5.9625,0,0,-5.9122,-5.9158,-5.9259,-5.9297,-5.9353,-5.9362,-5.9387,-5.9435,-5.9448,-5.9559,-5.9526,-5.9594,-5.9718,-5.9756,-5.9791,-5.9968,-5.9939,-5.999,-6.0084,-6.0157,-6.0178,-6.0196,-6.0259,-6.0282,-6.0004,-6.0004,-6.0005,0,-5.9197,-5.9318,-5.9313,-5.9404,-5.9446,-5.9409,-5.951,-5.9547,-5.9621,-5.9651,-5.961,-5.9765,-5.9797,-5.9933,-5.9977,-6.0006,-6.0033,-5.9985,-6.0175,-6.0193,-6.021,-6.027,-6.0294,-6.001,-6.001,-6.0009,-6.0009,0,-5.9408,-5.9492,-5.9566,-5.9641,-5.9692,-5.9787,-5.9796,-5.9847,-5.9836,-5.9849,-5.9962,-5.9999,-6.0074,-6.0105,-6.0094,-6.0241,-6.0217,-6.0176,-6.0104,-6.0241,-6.0297,-6.032,-6.0019,-6.0017,-6.0015,-6.0014,0,0,-5.9619,-5.9691,-5.9718,-5.9752,-5.9811,-5.9875,-5.9968,-6.0043,-6.0087,-6.014,-6.0217,-6.0322,-6.0285,-6.0326,-6.0318,-6.0383,-6.0521,-6.0334,-6.0335,-6.0368,-6.0684,-6.0715,-6.0742,-6.0502,-6.0506,-6.0509,-6.068,0,-5.9785,-5.9951,-5.9949,-6.0102,-6.0179,-6.0145,-6.0226,-6.027,-6.0285,-6.0351,-6.0366,-6.0441,-6.0386,-6.0411,-6.0473,-6.0491,-6.0585,-6.0479,-6.0573,-6.0576,-6.0562,-6.0772,-6.0804,-6.0964,-6.0702,-6.0706,-6.0709,0,-6.0002,-6.0064,-6.0225,-6.0273,-6.0306,-6.0379,-6.0447,-6.0511,-6.056,-6.0566,-6.0612,-6.0595,-6.0688,-6.0612,-6.074,-6.0668,-6.0706,-6.0721,-6.0727,-6.0736,-6.0651,-6.0787,-6.1015,-6.1039,-6.0743,-6.074,-6.0738,0,-6.0141,-6.0264,-6.0376,-6.0406,-6.0465,-6.0518,-6.0544,-6.0589,-6.0634,-6.0693,-6.0721,-6.079,-6.0827,-6.0879,-6.088,-6.0825,-6.1009,-6.0934,-6.1016,-6.1017,-6.1057,-6.1055,-6.1295,-6.1081,-6.1081,-6.108,-6.108,0,-6.0328,-6.0428,-6.044,-6.0509,-6.0619,-6.0616,-6.0724,-6.0746,-6.0786,-6.0857,-6.0831,-6.0898,-6.0895,-6.0963,-6.0964,-6.1069,-6.1086,-6.1093,-6.1092,-6.1096,-6.1095,-6.1121,-6.111,-6.1086,-6.1085,-6.1084,-6.1083,0,-6.0502,-6.0514,-6.0634,-6.0681,-6.0695,-6.0774,-6.0813,-6.0878,-6.089,-6.0981,-6.1002,-6.1021,-6.1099,-6.1106,-6.1196,-6.1196,-6.1324,-6.1311,-6.1309,-6.1307,-6.1389,-6.1381,-6.1655,-6.169,-6.1453,-6.1455,-6.1457,0,-6.0621,-6.0697,-6.0752,-6.0799,-6.083,-6.0905,-6.0951,-6.095,-6.0999,-6.1061,-6.1118,-6.1194,-6.1255,-6.1382,-6.1403,-6.1471,-6.146,-6.1551,-6.147,-6.1471,-6.1461,-6.1457,-6.1465,-6.1566,-6.1569,-6.1571,-6.1573,0,-6.083,-6.0833,-6.0901,-6.0973,-6.1029,-6.1084,-6.1136,-6.1175,-6.118,-6.1236,-6.1317,-6.1365,-6.1457,-6.1533,-6.1601,-6.1626,-6.1601,-6.1598,-6.1621,-6.1626,-6.1622,-6.1626,-6.1352,-6.1592,-6.159,-6.1589,-6.1588,-6.1587,-6.0981,-6.1047,-6.1097,-6.1174,-6.1213,-6.1262,-6.1326,-6.1347,-6.1415,-6.1492,-6.1486,-6.1576,-6.1622,-6.171,-6.174,-6.1809,-6.1778,-6.1811,-6.182,-6.1828,-6.1837,-6.1611,-6.1821,-6.1821,-6.182,-6.182,-6.1819,0,-6.119,-6.122,-6.1291,-6.1365,-6.1426,-6.1398,-6.1454,-6.1506,-6.1586,-6.1632,-6.1693,-6.1785,-6.1859,-6.1885,-6.1956,-6.2006,-6.1996,-6.2025,-6.2022,-6.2028,-6.186,-6.1834,-6.2032,-6.2032,-6.2032,-6.2032,-6.2032,-6.2032,-6.1305,-6.1417,-6.1425,-6.1554,-6.1583,-6.1673,-6.1707,-6.1751,-6.1788,-6.1894,-6.1956,-6.1973,-6.2011,-6.2084,-6.215,-6.2156,-6.2183,-6.2217,-6.2218,-6.2061,-6.2039,-6.2019,-6.1994,-6.2223,-6.2223,-6.238,-6.2381,-6.2382]}]]